Tucson, AZ

7:30 PM MST on January 17, 2018 (GMT -0700)
Tucson International

Weather History for KTUS - November, 2013

Change the Weather History Date:

Sunday, November 3, 2013

  Actual Average Record
Temperature  
Mean Temperature 69 °F 65 °F  
Max Temperature 81 °F 79 °F 93 °F (2009)
Min Temperature 57 °F 51 °F 28 °F (1956)
Degree Days  
Heating Degree Days 0 3  
Month to date heating degree days 3 8  
Since 1 July heating degree days 16 32  
Cooling Degree Days 4 2  
Month to date cooling degree days 6 8  
Year to date cooling degree days 3610 3127  
Growing Degree Days 19 (Base 50)    
Moisture  
Dew Point 47 °F    
Average Humidity 53    
Maximum Humidity 80    
Minimum Humidity 25    
Precipitation  
Precipitation 0.07 in 0.02 in 0.74 in (1983)
Month to date precipitation 0.12 0.06  
Year to date precipitation 5.60 10.15  
Snow  
Snow 0.00 in - - ()
Month to date snowfall 0.0  
Snow Depth 0.00 in    
Sea Level Pressure  
Sea Level Pressure 29.78 in    
Wind  
Wind Speed 7 mph (SSE)    
Max Wind Speed 17 mph    
Max Gust Speed 20 mph    
Visibility 10 miles    
Events Rain    
T = Trace of Precipitation, MM = Missing Value Source: NWS Daily Summary

Daily Weather History Graph

Daily Weather History Graph

Search for Another Location

Airport or City:

Trip Planner

Search our weather history database for the weather conditions in past years. The results will help you decide how hot, cold, wet, or windy it might be!

Date:

Astronomy

Nov. 03, 2013 Rise Set
Actual Time 6:42 AM MST 5:31 PM MST
Civil Twilight 6:17 AM MST 5:57 PM MST
Nautical Twilight 5:48 AM MST 6:26 PM MST
Astronomical Twilight 5:19 AM MST 6:54 PM MST
Moon 6:49 AM MST (11/3) 5:51 PM MST (11/3)
Length of Visible Light 11h 39m
Length of Day
10h 49m
New Moon, 0% of the Moon is Illuminated
Nov 3
New Moon
Nov 9
First Quarter
Nov 17
Full
Nov 25
Last Quarter
Dec 2
New

Hourly Weather History & Observations

Time (MST) Temp. Dew Point Humidity Pressure Visibility Wind Dir Wind Speed Gust Speed Precip Events Conditions
12:53 AM 62.1 °F 54.0 °F 75% 29.87 in 8.0 mi SE 13.8 mph - 0.07 in Rain Light Rain
1:53 AM 61.0 °F 54.0 °F 78% 29.86 in 10.0 mi East 8.1 mph - 0.00 in   Scattered Clouds
2:53 AM 61.0 °F 53.1 °F 75% 29.83 in 10.0 mi East 8.1 mph - N/A   Mostly Cloudy
3:53 AM 61.0 °F 52.0 °F 72% 29.80 in 10.0 mi ESE 8.1 mph - N/A   Partly Cloudy
4:53 AM 59.0 °F 53.1 °F 81% 29.81 in 10.0 mi SSE 4.6 mph - N/A   Mostly Cloudy
5:53 AM 59.0 °F 52.0 °F 78% 29.82 in 10.0 mi SE 10.4 mph - N/A   Partly Cloudy
6:53 AM 57.9 °F 52.0 °F 81% 29.83 in 10.0 mi SSE 9.2 mph - N/A   Partly Cloudy
7:53 AM 60.1 °F 52.0 °F 75% 29.83 in 10.0 mi SE 9.2 mph - N/A   Clear
8:53 AM 64.9 °F 51.1 °F 61% 29.85 in 10.0 mi SSE 8.1 mph - N/A   Mostly Cloudy
9:53 AM 68.0 °F 51.1 °F 55% 29.83 in 10.0 mi Variable 6.9 mph - N/A   Partly Cloudy
10:53 AM 72.0 °F 50.0 °F 46% 29.83 in 10.0 mi SE 5.8 mph - N/A   Mostly Cloudy
11:53 AM 75.0 °F 46.0 °F 36% 29.80 in 10.0 mi Calm Calm - N/A   Mostly Cloudy
12:53 PM 77.0 °F 46.0 °F 33% 29.76 in 10.0 mi Variable 4.6 mph - N/A   Partly Cloudy
1:53 PM 79.0 °F 45.0 °F 30% 29.73 in 10.0 mi WNW 10.4 mph - N/A   Partly Cloudy
2:53 PM 80.1 °F 41.0 °F 25% 29.71 in 10.0 mi West 9.2 mph 18.4 mph N/A   Partly Cloudy
3:53 PM 79.0 °F 41.0 °F 26% 29.70 in 10.0 mi West 10.4 mph - N/A   Scattered Clouds
4:53 PM 78.1 °F 39.0 °F 25% 29.70 in 10.0 mi WSW 11.5 mph - N/A   Clear
5:53 PM 73.9 °F 37.9 °F 27% 29.71 in 10.0 mi West 6.9 mph - N/A   Clear
6:53 PM 70.0 °F 39.0 °F 32% 29.74 in 10.0 mi SSW 4.6 mph - N/A   Clear
7:53 PM 69.1 °F 41.0 °F 36% 29.75 in 10.0 mi Calm Calm - N/A   Clear
8:53 PM 66.0 °F 42.1 °F 42% 29.76 in 10.0 mi WSW 4.6 mph - N/A   Clear
9:53 PM 64.0 °F 42.1 °F 45% 29.76 in 10.0 mi Calm Calm - N/A   Clear
10:53 PM 61.0 °F 43.0 °F 52% 29.76 in 10.0 mi SE 6.9 mph - N/A   Clear
11:53 PM 61.0 °F 42.1 °F 50% 29.75 in 10.0 mi South 10.4 mph - N/A   Clear